• Em Portugal
  • Lista de países
  • Para 7 dias
  • Temperatura da água
  • Mapas de satélite
  • Mapa do tempo
  • Widgets de tempo
  • user-avatar
    Iniciar Sessão

    Previsão horária em Zahla

    Hoje, 15 Agosto, Quarta-feira

    Tempo Temperatura Precipitação Vento Pressão Humidade
    00:00 +23°C° 0 mm 2 m/s 671 mmHg 67%
    01:00 +21°C° 0 mm 2 m/s 671 mmHg 66%
    02:00 +21°C° 0 mm 2 m/s 670 mmHg 64%
    03:00 +21°C° 0 mm 2 m/s 670 mmHg 63%
    04:00 +20°C° 0 mm 2 m/s 670 mmHg 61%
    05:00 +20°C° 0 mm 2 m/s 670 mmHg 59%
    06:00 +23°C° 0 mm 2 m/s 671 mmHg 51%
    07:00 +25°C° 0 mm 2 m/s 671 mmHg 42%
    08:00 +27°C° 0 mm 2 m/s 672 mmHg 34%
    09:00 +28°C° 0 mm 2 m/s 672 mmHg 31%
    10:00 +29°C° 0 mm 2 m/s 672 mmHg 28%
    11:00 +31°C° 0 mm 3 m/s 672 mmHg 25%
    12:00 +31°C° 0 mm 3 m/s 672 mmHg 26%
    13:00 +31°C° 0 mm 3 m/s 672 mmHg 28%
    14:00 +33°C° 0 mm 3 m/s 672 mmHg 29%
    15:00 +31°C° 0 mm 3 m/s 672 mmHg 33%
    16:00 +31°C° 0 mm 3 m/s 672 mmHg 36%
    17:00 +30°C° 0 mm 3 m/s 671 mmHg 40%
    18:00 +29°C° 0 mm 2 m/s 671 mmHg 47%
    19:00 +28°C° 0 mm 2 m/s 671 mmHg 54%
    20:00 +26°C° 0 mm 2 m/s 671 mmHg 61%
    21:00 +26°C° 0 mm 2 m/s 671 mmHg 64%
    22:00 +25°C° 0 mm 1 m/s 672 mmHg 66%
    23:00 +25°C° 0 mm 1 m/s 672 mmHg 69%

    Amanhã, 16 Agosto, Quinta-feira

    Tempo Temperatura Precipitação Vento Pressão Humidade
    00:00 +24°C° 0 mm 1 m/s 671 mmHg 69%
    01:00 +24°C° 0 mm 1 m/s 671 mmHg 70%
    02:00 +23°C° 0 mm 1 m/s 671 mmHg 71%
    03:00 +23°C° 0 mm 1 m/s 671 mmHg 71%
    04:00 +22°C° 0 mm 1 m/s 671 mmHg 72%
    05:00 +22°C° 0 mm 1 m/s 671 mmHg 72%
    06:00 +24°C° 0 mm 1 m/s 671 mmHg 62%
    07:00 +25°C° 0 mm 1 m/s 672 mmHg 51%
    08:00 +27°C° 0 mm 2 m/s 672 mmHg 41%
    09:00 +29°C° 0 mm 2 m/s 673 mmHg 36%
    10:00 +30°C° 0 mm 2 m/s 673 mmHg 31%
    11:00 +31°C° 0 mm 3 m/s 673 mmHg 26%
    12:00 +33°C° 0 mm 3 m/s 673 mmHg 27%
    13:00 +33°C° 0 mm 3 m/s 673 mmHg 28%
    14:00 +34°C° 0 mm 3 m/s 673 mmHg 29%
    15:00 +33°C° 0 mm 3 m/s 673 mmHg 32%
    16:00 +31°C° 0 mm 3 m/s 672 mmHg 35%
    17:00 +31°C° 0 mm 3 m/s 672 mmHg 38%
    18:00 +30°C° 0 mm 2 m/s 672 mmHg 45%
    19:00 +28°C° 0 mm 2 m/s 672 mmHg 52%
    20:00 +27°C° 0 mm 1 m/s 672 mmHg 58%
    21:00 +26°C° 0 mm 1 m/s 672 mmHg 60%
    22:00 +26°C° 0 mm 1 m/s 672 mmHg 62%
    23:00 +25°C° 0 mm 1 m/s 672 mmHg 64%

    Depois de amanhã, 17 Agosto, Sexta-feira

    Tempo Temperatura Precipitação Vento Pressão Humidade
    00:00 +24°C° 0 mm 1 m/s 672 mmHg 64%
    01:00 +24°C° 0 mm 1 m/s 672 mmHg 64%
    02:00 +23°C° 0 mm 1 m/s 672 mmHg 63%
    03:00 +23°C° 0 mm 1 m/s 671 mmHg 61%
    04:00 +22°C° 0 mm 1 m/s 671 mmHg 59%
    05:00 +22°C° 0 mm 1 m/s 671 mmHg 57%
    06:00 +24°C° 0 mm 2 m/s 672 mmHg 48%
    07:00 +26°C° 0 mm 2 m/s 673 mmHg 39%
    08:00 +28°C° 0 mm 2 m/s 673 mmHg 30%
    09:00 +29°C° 0 mm 3 m/s 674 mmHg 28%
    10:00 +31°C° 0 mm 3 m/s 674 mmHg 25%
    11:00 +33°C° 0 mm 3 m/s 674 mmHg 23%
    12:00 +33°C° 0 mm 4 m/s 674 mmHg 25%
    13:00 +34°C° 0 mm 4 m/s 673 mmHg 26%
    14:00 +34°C° 0 mm 4 m/s 673 mmHg 28%
    15:00 +33°C° 0 mm 4 m/s 673 mmHg 31%
    16:00 +31°C° 0 mm 3 m/s 672 mmHg 34%
    17:00 +31°C° 0 mm 3 m/s 672 mmHg 37%
    18:00 +29°C° 0 mm 3 m/s 672 mmHg 44%
    19:00 +27°C° 0 mm 2 m/s 672 mmHg 51%
    20:00 +26°C° 0 mm 2 m/s 672 mmHg 59%
    21:00 +25°C° 0 mm 2 m/s 672 mmHg 59%
    22:00 +24°C° 0 mm 2 m/s 672 mmHg 59%
    23:00 +24°C° 0 mm 2 m/s 671 mmHg 59%

    18 Agosto, Sábado

    Tempo Temperatura Precipitação Vento Pressão Humidade
    00:00 +23°C° 0 mm 2 m/s 671 mmHg 58%
    01:00 +23°C° 0 mm 2 m/s 671 mmHg 56%
    02:00 +21°C° 0 mm 2 m/s 671 mmHg 55%
    03:00 +21°C° 0 mm 2 m/s 670 mmHg 55%
    04:00 +20°C° 0 mm 2 m/s 670 mmHg 56%
    05:00 +20°C° 0 mm 2 m/s 670 mmHg 56%
    06:00 +22°C° 0 mm 3 m/s 671 mmHg 48%
    07:00 +25°C° 0 mm 3 m/s 671 mmHg 40%
    08:00 +27°C° 0 mm 3 m/s 672 mmHg 32%
    09:00 +28°C° 0 mm 3 m/s 672 mmHg 28%
    10:00 +30°C° 0 mm 3 m/s 672 mmHg 25%
    11:00 +32°C° 0 mm 4 m/s 672 mmHg 22%
    12:00 +32°C° 0 mm 4 m/s 672 mmHg 23%
    13:00 +33°C° 0 mm 4 m/s 672 mmHg 25%
    14:00 +33°C° 0 mm 4 m/s 671 mmHg 26%
    15:00 +32°C° 0 mm 4 m/s 671 mmHg 30%
    16:00 +30°C° 0 mm 3 m/s 671 mmHg 34%
    17:00 +30°C° 0 mm 3 m/s 671 mmHg 38%
    18:00 +28°C° 0 mm 3 m/s 671 mmHg 45%
    19:00 +27°C° 0 mm 3 m/s 671 mmHg 53%
    20:00 +25°C° 0 mm 2 m/s 671 mmHg 60%
    21:00 +24°C° 0 mm 2 m/s 671 mmHg 61%
    22:00 +24°C° 0 mm 2 m/s 670 mmHg 63%
    23:00 +23°C° 0 mm 2 m/s 670 mmHg 64%

    19 Agosto, Domingo

    Tempo Temperatura Precipitação Vento Pressão Humidade
    00:00 +21°C° 0 mm 2 m/s 670 mmHg 63%
    01:00 +21°C° 0 mm 2 m/s 670 mmHg 63%
    02:00 +21°C° 0 mm 2 m/s 670 mmHg 62%
    03:00 +20°C° 0 mm 2 m/s 669 mmHg 62%
    04:00 +20°C° 0 mm 2 m/s 669 mmHg 63%
    05:00 +19°C° 0 mm 2 m/s 669 mmHg 63%
    06:00 +21°C° 0 mm 2 m/s 670 mmHg 54%
    07:00 +24°C° 0 mm 2 m/s 670 mmHg 45%
    08:00 +26°C° 0 mm 2 m/s 671 mmHg 35%
    09:00 +28°C° 0 mm 3 m/s 671 mmHg 33%
    10:00 +29°C° 0 mm 3 m/s 671 mmHg 30%
    11:00 +30°C° 0 mm 3 m/s 671 mmHg 27%
    12:00 +31°C° 0 mm 3 m/s 671 mmHg 29%
    13:00 +31°C° 0 mm 3 m/s 671 mmHg 32%
    14:00 +33°C° 0 mm 4 m/s 671 mmHg 34%
    15:00 +31°C° 0 mm 3 m/s 670 mmHg 38%
    16:00 +30°C° 0 mm 3 m/s 670 mmHg 43%
    17:00 +30°C° 0 mm 3 m/s 670 mmHg 47%
    18:00 +28°C° 0 mm 3 m/s 670 mmHg 54%
    19:00 +27°C° 0 mm 2 m/s 670 mmHg 60%
    20:00 +26°C° 0 mm 2 m/s 670 mmHg 67%
    21:00 +25°C° 0 mm 2 m/s 670 mmHg 69%
    22:00 +25°C° 0 mm 2 m/s 670 mmHg 72%
    23:00 +24°C° 0 mm 2 m/s 670 mmHg 74%

    20 Agosto, Segunda-feira

    Tempo Temperatura Precipitação Vento Pressão Humidade
    00:00 +24°C° 0 mm 2 m/s 670 mmHg 74%
    01:00 +23°C° 0 mm 2 m/s 670 mmHg 74%
    02:00 +23°C° 0 mm 2 m/s 669 mmHg 75%
    03:00 +23°C° 0 mm 2 m/s 669 mmHg 74%
    04:00 +21°C° 0 mm 2 m/s 670 mmHg 74%
    05:00 +21°C° 0 mm 2 m/s 670 mmHg 73%
    06:00 +24°C° 0 mm 2 m/s 670 mmHg 64%
    07:00 +25°C° 0 mm 2 m/s 671 mmHg 54%
    08:00 +27°C° 0 mm 2 m/s 671 mmHg 45%
    09:00 +28°C° 0 mm 2 m/s 672 mmHg 41%
    10:00 +30°C° 0 mm 3 m/s 672 mmHg 38%
    11:00 +31°C° 0 mm 3 m/s 672 mmHg 34%
    12:00 +31°C° 0 mm 3 m/s 672 mmHg 35%
    13:00 +33°C° 0 mm 3 m/s 672 mmHg 36%
    14:00 +33°C° 0 mm 3 m/s 672 mmHg 37%
    15:00 +31°C° 0 mm 3 m/s 671 mmHg 41%
    16:00 +31°C° 0 mm 3 m/s 671 mmHg 44%
    17:00 +30°C° 0 mm 3 m/s 671 mmHg 48%
    18:00 +29°C° 0 mm 2 m/s 671 mmHg 54%
    19:00 +28°C° 0 mm 2 m/s 671 mmHg 60%
    20:00 +27°C° 0 mm 1 m/s 671 mmHg 66%
    21:00 +26°C° 0 mm 1 m/s 671 mmHg 69%
    22:00 +26°C° 0 mm 1 m/s 671 mmHg 71%
    23:00 +25°C° 0 mm 1 m/s 671 mmHg 73%
    Mostrar mais